{"data":{"norad_id":66351,"epoch":"2026-09-20T02:23:05.632800Z","epoch_age_seconds":128053,"freshness":"FRESH","line1":"1 66351U 25254D   26263.09937075  .00014872  00000+0  48986-3 0  9997","line2":"2 66351  53.1572  47.8116 0000839  89.0825 271.0273 15.31711156 48763","mean_motion":15.31711156,"eccentricity":8.39e-5,"inclination_deg":53.1572,"raan_deg":47.8116,"arg_perigee_deg":89.0825,"mean_anomaly_deg":271.0273,"bstar":0.00048986,"rev_number":4876,"period_min":94.012503229427,"perigee_km":470.13212198222,"apogee_km":471.28135796178,"semimajor_km":6848.843739972,"source":"CELESTRAK","updated_at":"2026-09-21T09:00:35.879561Z"}}